This is the latest recevied weather packets stored in our database for station/object KO5MO-10. If no packets are shown the sender has not sent any weather packets the latest 1 day(s).
| Time | Temp. | Humidity | Pressure | Rain* | Wind** | Luminosity | Snow |
|---|---|---|---|---|---|---|---|
| 1777839970 | 37.78° C | 14% | 1005.2 hPa | - | - | - | - |
| 1777839070 | 38.33° C | 15% | 1005.2 hPa | - | - | - | - |
| 1777838170 | 37.78° C | 15% | 1005.5 hPa | - | - | - | - |
| 1777837270 | 37.22° C | 16% | 1005.8 hPa | - | - | - | - |
| 1777836369 | 36.67° C | 17% | 1006.2 hPa | - | - | - | - |
| 1777835469 | 36.11° C | 17% | 1006.4 hPa | - | - | - | - |
| 1777834569 | 35.56° C | 18% | 1006.6 hPa | - | - | - | - |
| 1777833669 | 35.56° C | 18% | 1006.9 hPa | - | - | - | - |
| 1777832769 | 35° C | 18% | 1007.2 hPa | - | - | - | - |
| 1777831868 | 33.89° C | 19% | 1007.4 hPa | - | - | - | - |
| 1777830968 | 32.22° C | 20% | 1007.6 hPa | - | - | - | - |
| 1777830068 | 31.67° C | 21% | 1007.8 hPa | - | - | - | - |
| 1777829168 | 31.67° C | 21% | 1007.8 hPa | - | - | - | - |
| 1777828268 | 31.67° C | 21% | 1007.7 hPa | - | - | - | - |
| 1777827368 | 31.67° C | 23% | 1007.9 hPa | - | - | - | - |
| 1777826467 | 30.56° C | 24% | 1007.9 hPa | - | - | - | - |
| 1777825567 | 29.44° C | 25% | 1008 hPa | - | - | - | - |
| 1777824667 | 28.89° C | 26% | 1007.7 hPa | - | - | - | - |
| 1777823767 | 27.78° C | 28% | 1007.8 hPa | - | - | - | - |
| 1777822867 | 27.22° C | 28% | 1007.7 hPa | - | - | - | - |
| 1777821966 | 26.67° C | 29% | 1007.6 hPa | - | - | - | - |
| 1777821066 | 26.11° C | 29% | 1007.6 hPa | - | - | - | - |
| 1777820166 | 26.11° C | 29% | 1007.6 hPa | - | - | - | - |
| 1777819266 | 25.56° C | 31% | 1007.6 hPa | - | - | - | - |
| 1777818366 | 24.44° C | 33% | 1007.4 hPa | - | - | - | - |
* Rain since midnight (hover to see other rain measurements)
** Current wind speed in m/s (hover to see current wind gust speed)